[Date Prev][Date Next][Thread Prev][Thread Next] - [Date Index][Thread Index][Author Index]

2 Line ISS Keps 11-8



ISS
1 25544U 98067A   05312.04737269  .00023654  00000-0  16127-3 0  7098
2 25544 051.6440 243.5710 0001977 111.4932 064.7756 15.74733256398322
----
Via the sarex mailing list at AMSAT.ORG courtesy of AMSAT-NA.
To unsubscribe, send "unsubscribe sarex" to Majordomo@amsat.org



AMSAT Top AMSAT Home